sat.trackr.live / text

‹ back to catalog

STARLINK-32333

NORAD 61626 · 2024-191F

PAYLOAD ACTIVE UNKNOWN

§ Identity

Operator
Country
US
Launch date
2024-10-23
Launch site
AFETR
Launch vehicle
Mass (kg)
RCS (m²)

Purposes: comms

External: N2YO · Heavens-Above · Gunter

§ Orbital elements

Epoch: 2026-09-20T22:19:11.890272Z

Period
94.27 min
Inclination
43.0013°
Eccentricity
0.0001270
Mean motion
15.27577184 rev/d
Perigee alt
482.2 km
Apogee alt
483.9 km
Semi-major
6,861.2 km
B*
4.4614e-5
RAAN
135.5454°
Arg perigee
272.4456°
Mean anomaly
87.6250°
Rev number
10,735

§ Raw data

STARLINK-323331 61626U 24191F   26263.92999873  .00000966  00000+0  44614-4 0  99962 61626  43.0013 135.5454 0001270 272.4456  87.6250 15.27577184107352

JSON: /api/v1/satellites/61626 · /tle

For live sub-satellite position, see the globe view (requires WebGL).

§ Visibility from observer

Set your observer location to see the next 7 days of passes ≥ 10°. The values pass through the URL so the page stays shareable.

No JS? Fill the form by hand. The geolocation button needs JavaScript.